Regional Weather Roundup
Issued by NWS

Home | Current Version | Previous Version | Graphics & Text | Print | Product List | Glossary On
Versions: 1 2 3 4 5 6 7 8 9 10 11 12 13 14 15 16 17 18 19 20 21 22 23 24 25 26 27 28 29 30 31 32 33 34 35 36 37 38 39 40 41 42 43 44 45 46 47 48 49 50
000
ASUS43 KIND 260159
RWRIN

WEATHER ROUNDUP FOR INDIANA
NATIONAL WEATHER SERVICE INDIANAPOLIS IN
900 PM EST THU DEC 25 2014

NOTE: "FAIR" INDICATES FEW OR NO CLOUDS BELOW 12,000 FEET WITH NO
SIGNIFICANT WEATHER AND/OR OBSTRUCTIONS TO VISIBILITY.

* - STATION DOES NOT REPORT WEATHER SUCH AS PRECIPITATION OR FOG.

+ - STATION NOT QUALITY CONTROLLED BY THE NATIONAL WEATHER SERVICE.
    USE DATA WITH CAUTION...ESPECIALLY DEWPOINT AND RELATIVE
    HUMIDITY OBSERVATIONS.

INZ001>003-010>013-019-020-260300-
NORTHWEST INDIANA

CITY           SKY/WX    TMP DP  RH WIND       PRES   REMARKS
GARY /AIRPORT/ MOCLDY    41  30  65 S14       30.03F
KNOX *+        MOCLDY    36  29  76 S9        30.06S
VALPARAISO     NOT AVBL

$$

LMZ046-743>745-260300-
SOUTHERN LAKE MICHIGAN

STATION/POSITION TIME  TEMP WIND        PRES
                       AIR  DIR/SP/G
                 (UTC) (F)  (DEG/KT/KT) (MB)
MICHIGAN CITY    0100   38  150/ 14/ 21   N/A

$$

INZ004-005-014>016-021>024-260300-
NORTH CENTRAL INDIANA

CITY           SKY/WX    TMP DP  RH WIND       PRES   REMARKS
GOSHEN         MOCLDY    36  30  79 S12       30.08S
SOUTH BEND     CLOUDY    37  31  78 S8        30.07R
WARSAW +       MOCLDY    34  32  93 S5        30.09S WCI  30

$$

INZ006>009-017-018-025>027-260300-
NORTHEAST INDIANA

CITY           SKY/WX    TMP DP  RH WIND       PRES   REMARKS
ANGOLA *+      CLEAR     34  28  80 S6        30.09S WCI  29
FORT WAYNE     CLEAR     33  30  88 S9        30.12F WCI  25

$$

INZ028-029-035-036-043>045-051>053-260300-
WEST CENTRAL INDIANA

CITY           SKY/WX    TMP DP  RH WIND       PRES   REMARKS
GREENCASTLE +  CLEAR     34  30  86 S9        30.11R WCI  26
LAFAYETTE      CLEAR     35  31  85 SE5       30.08S WCI  31
TERRE HAUTE    CLEAR     38  32  79 S8        30.10R

$$

INZ030>032-037>040-046>048-054>057-064-065-260300-
CENTRAL INDIANA

CITY           SKY/WX    TMP DP  RH WIND       PRES   REMARKS
CP ATTERBURY + CLEAR     34  32  93 MISG      30.15F
COLUMBUS       CLEAR     34  32  93 S9        30.16S WCI  26
INDIANAPOLIS   CLEAR     34  30  85 SE12      30.11S WCI  25
-EAGLE CREEK   CLEAR     36  31  82 S8        30.11S
KOKOMO *+      CLEAR     36  28  75 S12       30.09S
MT COMFORT *+  CLEAR     36  28  75 S10       30.12F
SHELBYVILLE    CLEAR     36  31  82 SE10      30.14S

$$

INZ033-034-041-042-049-050-058-059-260300-
EAST CENTRAL INDIANA

CITY           SKY/WX    TMP DP  RH WIND       PRES   REMARKS
MUNCIE         CLEAR     35  30  82 S8        30.12F WCI  29

$$

INZ060-061-067>069-081>083-085>088-260300-
SOUTHWEST INDIANA

CITY           SKY/WX    TMP DP  RH WIND       PRES   REMARKS
EVANSVILLE     CLEAR     42  33  70 SE6       30.14S
HUNTINGBURG *+ CLEAR     37  30  75 SE9       30.14F

$$

INZ062-063-066-070>080-084-089>092-260300-
SOUTH CENTRAL AND SOUTHEAST INDIANA

CITY           SKY/WX    TMP DP  RH WIND       PRES   REMARKS
BLOOMINGTON    CLEAR     36  32  85 SE9       30.12S

$$



USA.gov is the U.S. government's official web portal to all federal, state and local government web resources and services.